Starlink 35815

operational
NORAD ID: 66577 Int'l Des: 2025-268 Owner: SPXS Country: US Constellation: starlink
LEOCIRCULAR

Starlink 35815について

説明を読み込み中...

リアルタイム位置

3D地球を読み込み中...

次回通過

高度履歴

Altitude vs Time

uPlot chart will show altitude changes over time

軌道要素

1 66577U 25268W 26061.19688756 .00036039 00000-0 13124-2 0 9993
2 66577 42.9988 29.3868 0000680 228.8679 131.2114 15.27590684 16811
Epoch: Mar 2, 2026 • Age: 37 hours

現在のステータス

高度 488.1 km
速度 7.62 km/s
衛星直下点 -24.17°S, 126.75°W
打ち上げ日 Nov 21, 2025
運用期間 0.2 years
タイプ internet

技術仕様

分類 Payload
質量 575.00 kg
乾燥質量 530.00 kg
総質量 575.00 kg
長さ 0.30 m
直径 4.10 m
スパン 29.00 m
形状 Box + pan
製造者 SPXS
バスタイプ Starlink V2MO
フェーズステータス In Orbit
所有者/国 SPXS/US

大規模コンステレーション

Loading constellations...